IRIDIUM 64 [B] (25287 NORAD) Tracking and Keplerian Element Data

This shows tracking and keplerian element data for the satellite.

Feedback or suggestion? Click here.




ElementValue
Catalog25287
NameIRIDIUM 64 [B]
Epoch Orbit6144
Epoch Day198.67830953
Epoch Year2018
RAAN58.6635
Inclination86.4199
Eccentricity0.0002202
Argument of Perigee84.1502
Mean Anonmoly275.9947
Mean Motion14.38608453
Decay Rate6.5E-07
L11 25287U 98021C 18198.67830953 .00000065 00000-0 14572-4 0 9996
L22 25287 86.4199 58.6635 0002202 84.1502 275.9947 14.38608453 61442

Live tracking and technical data element details for IRIDIUM 64 [B] (NORAD 25287). IRIDIUM 64 [B] can be tracked NOW for your location showing map with azimuth and elevation plus other details from your city location.

Track the satellite on the map from your city or location and see movement details for azimuth, elevation, latitude, longitude, range, height, and movement on the map or in text.







IsCatalogInMostPopularTable: catalog: 25287, numindb: 31
Update: records affected: 1



GetName: 25287 IRIDIUM 64 [B]

Hit Count: updated at: Fri, 20 Jul 2018 07:01:09 GMT